Flag for Canada Weather past 2 weeks in Dawson Creek, British Columbia, Canada

Now
43 °F

Passing clouds.


Feels Like: 41 °F
Forecast: 50 / 80 °F
Wind: 3 mph from West

Location: Dawson Creek Airport

Current Time: May 23, 2015 at 5:20:50 AM

Latest Report: May 23, 2015 at 5:00 AM


Visibility: 9 mi

Pressure: 30.14 "Hg

Humidity: 81%

Dew point: 37 °F

Location of Dawson CreekLocation

Historic Weather in Dawson Creek — Graph

°F

Dawson Creek temperature yesterday

Maximum temperature yesterday: 79 °F (at 2:00 PM)
Minimum temperature yesterday: 46 °F (at 3:00 AM)
Average temperature yesterday: 64 °F

Past Weeks' High & Low Weather Summary

 TemperatureHumidityPressure
High79 °F (May 22, 2:00 PM)93% (May 8, 4:00 AM)30.40 "Hg (May 8, 4:00 AM)
Low23 °F (May 17, 5:00 AM)15% (May 12, 1:00 PM)29.81 "Hg (May 14, 8:00 PM)
Average55 °F49%30.07 "Hg
* Reported May 8 4:00 AM — May 23 4:00 AM, Dawson Creek, Weather by CustomWeather, © 2015

Note: Actual official high and low records may vary slightly from our data, if they occured in-between our weather recording intervals... More about our weather records

Advertising

Dawson Creek weather history for previous 24 hours

 ConditionsComfort  
Time TempWeatherWind HumidityBarometerVisibility
4:00 AM
Sat, May 23
45 °FClear.5 mph76%30.12 "Hg9 mi
3:00 AM46 °FClear.5 mph71%30.11 "Hg9 mi
2:00 AM48 °FClear.5 mph71%30.11 "Hg9 mi
1:00 AM52 °FClear.6 mph67%30.09 "Hg9 mi
12:00 AM54 °FPassing clouds.6 mph58%30.09 "Hg9 mi
11:00 PM
Fri, May 22
55 °FPassing clouds.6 mph55%30.07 "Hg9 mi
10:00 PM59 °FPartly sunny.2 mph48%30.06 "Hg9 mi
9:00 PM64 °FSunny.2 mph40%30.03 "Hg9 mi
8:00 PM72 °FSunny.7 mph27%30.01 "Hg9 mi
7:00 PM77 °FPassing clouds.12 mph21%30.00 "Hg9 mi
6:00 PM77 °FSunny.10 mph22%30.01 "Hg9 mi
5:00 PM77 °FScattered clouds.6 mph26%30.01 "Hg9 mi
4:00 PM79 °FSunny.14 mph18%30.01 "Hg9 mi
3:00 PM79 °FSunny.14 mph23%30.01 "Hg9 mi
2:00 PM79 °FSunny.12 mph21%30.01 "Hg9 mi
1:00 PM75 °FSunny.3 mph27%30.02 "Hg9 mi
12:00 PM73 °FSunny.5 mph25%30.02 "Hg9 mi
11:00 AM70 °FSunny.3 mph35%30.03 "Hg9 mi
10:00 AM66 °FSunny.6 mph49%30.03 "Hg9 mi
9:00 AM64 °FSunny.7 mph52%30.02 "Hg9 mi
8:00 AM61 °FSunny.8 mph59%30.01 "Hg9 mi
7:00 AM55 °FPassing clouds.3 mph72%30.01 "Hg9 mi
6:00 AM54 °FPartly sunny.3 mph72%30.01 "Hg9 mi
5:00 AM50 °FOvercast.5 mph76%29.99 "Hg9 mi
Weather by CustomWeather, © 2015

See weather overviewHow to use our weather pages